Greer, SC

2:38 AM EST on February 23, 2017 (GMT -0500)
Greenville-Spartanburg International

Weather History for KGSP - October, 2014

Change the Weather History Date:

Sunday, October 19, 2014

  Actual Average Record
Temperature  
Mean Temperature 59 °F 61 °F  
Max Temperature 70 °F 72 °F 89 °F (2016)
Min Temperature 48 °F 49 °F 32 °F (2009)
Degree Days  
Heating Degree Days 6 5  
Month to date heating degree days 51 68  
Since 1 July heating degree days 57 85  
Cooling Degree Days 0 1  
Month to date cooling degree days 53 38  
Year to date cooling degree days 1691 1700  
Growing Degree Days 9 (Base 50)    
Moisture  
Dew Point 44 °F    
Average Humidity 63    
Maximum Humidity 89    
Minimum Humidity 37    
Precipitation  
Precipitation 0.00 in 0.11 in 5.40 in (1937)
Month to date precipitation 3.57 2.18  
Year to date precipitation 42.21 38.12  
Snow  
Snow 0.00 in 0.00 in 0.00 in ()
Month to date snowfall 0.0 0.0  
Since 1 July snowfall 0.0 0.0  
Since 1 September snowfall 0.0 0.0  
Snow Depth 0.00 in    
Sea Level Pressure  
Sea Level Pressure 30.07 in    
Wind  
Wind Speed 4 mph (SE)    
Max Wind Speed 15 mph    
Max Gust Speed 21 mph    
Visibility 10 miles    
Events      
T = Trace of Precipitation, MM = Missing Value Source: NWS Daily Summary

Daily Weather History Graph

Daily Weather History Graph

Search for Another Location

Airport or City:

Trip Planner

Search our weather history database for the weather conditions in past years. The results will help you decide how hot, cold, wet, or windy it might be!

Date:

Astronomy

Oct. 19, 2014 Rise Set
Actual Time 7:38 AM EDT 6:49 PM EDT
Civil Twilight 7:12 AM EDT 7:14 PM EDT
Nautical Twilight 6:43 AM EDT 7:44 PM EDT
Astronomical Twilight 6:13 AM EDT 8:13 PM EDT
Moon 3:39 AM EDT (10/19) 4:31 PM EDT (10/19)
Length of Visible Light 12h 02m
Length of Day
11h 10m
Waning Crescent, 17% of the Moon is Illuminated
Oct 19
Waning Crescent
Oct 23
New
Oct 30
First Quarter
Nov 6
Full
Nov 14
Last Quarter

Hourly Weather History & Observations

Time (EDT) Temp. Dew Point Humidity Pressure Visibility Wind Dir Wind Speed Gust Speed Precip Events Conditions
12:53 AM 55.0 °F 42.1 °F 62% 29.99 in 10.0 mi Variable 6.9 mph - N/A   Clear
1:53 AM 55.0 °F 41.0 °F 59% 30.00 in 10.0 mi NW 5.8 mph - N/A   Clear
2:53 AM 53.1 °F 41.0 °F 64% 29.99 in 10.0 mi Variable 5.8 mph - N/A   Clear
3:53 AM 51.1 °F 41.0 °F 68% 30.00 in 10.0 mi NW 4.6 mph - N/A   Clear
4:53 AM 52.0 °F 41.0 °F 66% 30.03 in 10.0 mi Variable 4.6 mph - N/A   Clear
5:53 AM 53.1 °F 39.9 °F 61% 30.04 in 10.0 mi North 11.5 mph - N/A   Clear
6:53 AM 51.1 °F 41.0 °F 68% 30.08 in 10.0 mi North 5.8 mph - N/A   Clear
7:53 AM 48.9 °F 41.0 °F 74% 30.09 in 10.0 mi Calm Calm - N/A   Clear
8:53 AM 50.0 °F 44.1 °F 80% 30.11 in 10.0 mi Calm Calm - N/A   Clear
9:53 AM 55.9 °F 41.0 °F 57% 30.12 in 10.0 mi Calm Calm - N/A   Clear
10:53 AM 60.1 °F 43.0 °F 53% 30.13 in 10.0 mi Variable 4.6 mph - N/A   Clear
11:53 AM 62.1 °F 42.1 °F 48% 30.12 in 10.0 mi ENE 5.8 mph - N/A   Clear
12:53 PM 64.0 °F 43.0 °F 46% 30.11 in 10.0 mi Calm Calm - N/A   Clear
1:53 PM 66.0 °F 42.1 °F 42% 30.09 in 10.0 mi SSW 5.8 mph - N/A   Clear
2:53 PM 69.1 °F 42.1 °F 38% 30.06 in 10.0 mi SE 4.6 mph - N/A   Clear
3:53 PM 70.0 °F 45.0 °F 41% 30.05 in 10.0 mi South 6.9 mph - N/A   Clear
4:53 PM 69.1 °F 44.1 °F 40% 30.04 in 10.0 mi SSE 6.9 mph - N/A   Clear
5:53 PM 64.0 °F 46.9 °F 54% 30.05 in 10.0 mi SE 5.8 mph - N/A   Clear
6:53 PM 59.0 °F 48.0 °F 67% 30.06 in 10.0 mi SE 4.6 mph - N/A   Clear
7:53 PM 57.0 °F 48.0 °F 72% 30.08 in 10.0 mi SSE 4.6 mph - N/A   Clear
8:53 PM 55.0 °F 48.0 °F 77% 30.09 in 10.0 mi Calm Calm - N/A   Clear
9:53 PM 52.0 °F 48.9 °F 89% 30.09 in 10.0 mi Calm Calm - N/A   Clear
10:53 PM 52.0 °F 48.9 °F 89% 30.10 in 10.0 mi Calm Calm - N/A   Clear
11:53 PM 51.1 °F 48.0 °F 89% 30.10 in 10.0 mi Calm Calm - N/A   Clear